Theta_e
354 350 352 353 353 349 349 352 354 350 350 349 347 347 348 343 346 347 343 343 343 339
352 353 348 352 350 346 348 345 345 346 344 343 342 341 342 338 339 341 341 342 341 343
346 346 343 343 341 341 341 341 340 340 340 339 339 338 338 338 337 336 336 335 337 337
338 337 339 338 337 338 338 338 337 336 335 335 335 335 336 334 333 331 333 335 333 333
335 334 333 331 330 331 329 329 328 328 327 325 325 327 325 325 325 324 325 326 326 326
329 328 327 327 327 326 326 325 324 323 322 321 321 321 322 320 320 321 321 321 321 321
325 325 324 324 323 322 321 319 318 318 317 316 316 317 316 312 312 314 316 319 319 318
323 322 321 320 319 319 318 317 316 315 315 315 314 308 308 308 308 311 312 314 314 316
319 318 318 318 318 318 317 316 316 314 313 313 312 299 300 302 305 308 311 313 314 315
316 315 315 315 315 315 315 314 313 312 311 310 311 298 297 299 305 308 312 314 312 310
313 313 313 312 312 312 312 311 309 309 309 309 303 297 297 298 307 310 308 309 308 307
309 308 308 308 309 309 308 308 308 308 309 306 303 296 296 298 305 306 306 306 308 307
308 307 306 307 307 308 309 309 308 306 306 301 302 295 294 295 303 303 304 308 303 298
307 306 306 308 309 307 305 304 304 303 303 303 301 299 294 294 301 300 301 302 303 300
Wind_Speed
12 8 7 6 4 1 4 7 7 3 1 4 6 6 6 4 4 6 5 7 6 8
10 8 10 10 8 7 7 5 6 5 5 6 5 4 3 3 6 5 7 8 8 8
14 14 13 10 11 9 8 8 6 7 6 5 4 4 3 2 4 5 6 6 7 7
14 13 14 12 11 10 9 9 9 9 6 6 5 4 2 2 2 3 5 5 6 9
17 16 14 13 12 11 10 9 8 7 6 5 5 5 5 6 7 7 8 8 8 10
17 15 14 13 11 10 9 8 8 7 6 6 6 4 6 7 8 8 8 9 9 10
16 14 13 12 11 9 8 8 7 6 7 7 8 8 8 10 11 11 11 10 9 10
15 13 12 11 10 8 8 8 7 7 8 8 8 9 9 10 12 12 12 11 10 9
14 12 10 9 8 8 8 8 8 8 8 8 7 7 10 10 11 13 12 10 9 9
11 10 8 7 7 8 7 8 8 9 9 9 7 8 8 10 10 11 10 7 10 9
9 8 7 6 8 7 7 8 8 8 8 7 10 10 12 16 11 6 9 7 6 5
8 7 7 8 7 7 7 6 6 6 8 9 8 12 13 14 8 8 8 6 6 5
8 8 7 7 6 6 5 5 8 7 6 7 6 9 10 12 7 7 7 8 10 13
7 6 6 5 6 7 7 5 4 4 4 5 5 6 8 11 10 8 8 7 6 5
Wind_Direction
145 170 170 192 129 218 57 56 101 143 38 26 19 355 9 333 305 337 323 296 281 293
162 127 88 81 86 72 63 80 64 62 59 50 30 3 353 299 301 314 305 294 294 292
98 97 88 84 83 86 96 103 101 90 83 79 69 48 336 281 27 324 300 302 319 303
103 106 107 109 109 100 89 81 79 90 97 89 74 49 12 332 291 308 301 303 293 302
103 105 104 99 96 92 85 77 67 58 58 49 40 25 1 346 342 336 331 328 324 321
105 103 99 95 90 85 81 69 48 40 26 14 1 0 354 348 337 330 326 315 321 317
102 100 95 87 79 71 62 50 42 29 18 7 348 336 21 349 338 323 313 309 304 305
99 93 87 81 73 64 51 37 20 13 5 358 337 32 7 355 329 315 306 300 295 295
93 91 86 79 68 50 31 18 357 354 345 342 348 58 39 360 326 307 300 304 320 315
97 88 76 62 46 27 9 356 345 341 338 337 360 42 19 357 313 303 290 338 6 343
78 69 51 26 24 4 353 347 340 332 339 336 60 33 17 344 301 345 20 11 3 343
50 45 25 15 2 356 352 342 342 351 19 25 55 35 18 341 327 359 343 315 275 268
39 27 11 9 1 9 1 18 9 20 28 56 85 49 25 357 322 341 337 321 78 65
28 8 34 20 33 28 25 31 13 29 59 52 29 75 33 20 354 356 333 339 333 125